Location: Shades State Park
(39.9310°N, 87.0690°W)
Time: 23:56:54
(UTC-04:00)

Daily predictions for brighter satellites

Satellite Brightness Start Highest point End
(mag) Time Altitude Azimuth Time Altitude Azimuth Time Altitude Azimuth
Cosmos 2237 Rocket 3.9 21:30:33 10° SW 21:35:49 40° WNW 21:41:08 10° N
Cosmos 1302 Rocket 4.4 21:31:56 10° N 21:37:01 49° ENE 21:42:06 10° SE
USA 186 1.7 21:34:39 10° S 21:37:31 68° W 21:40:12 10° NNW
CZ-2C R/B 0.7 21:37:11 10° SSE 21:39:26 48° ENE 21:41:40 10° N
DEBRIS 3.3 21:36:07 10° WNW 21:43:02 59° NNE 21:45:36 10° ESE
Cosmos 1726 Rocket 3.7 21:39:39 10° N 21:44:07 81° W 21:48:31 10° S
Cosmos 2278 Rocket 3.6 21:39:21 10° NW 21:44:32 37° WSW 21:49:41 10° S
Cosmos 1461 3.5 21:41:36 10° NNW 21:45:45 44° NE 21:49:41 10° SE
ATLAS 3B R/B 4.0 21:43:58 10° SSE 21:49:25 21° ESE 21:54:50 10° ENE
SJ-11-01 4.3 21:45:43 10° SSE 21:50:20 66° ENE 21:54:59 10° N
Tsikada Rocket 4.5 21:45:50 10° SSE 21:51:47 43° E 21:57:45 10° NNE
Cosmos 2369 Rocket 3.8 21:52:57 10° N 21:57:08 21° NE 22:01:15 10° E
Cosmos 2058 Rocket 3.4 21:56:10 10° NNW 22:00:32 69° W 22:04:51 10° S
Cosmos 1666 2.7 21:57:43 10° N 22:01:38 75° E 22:05:31 10° SSE
APEX 3.7 21:57:32 10° NNW 22:01:42 89° ENE 22:07:09 10° SSE
Cosmos 2285 Rocket 4.2 21:56:24 10° NNW 22:02:42 76° WSW 22:09:02 10° S
Cosmos 1602 Rocket 3.7 21:59:03 10° S 22:03:25 57° E 22:07:49 10° NNE
Abrixas rocket 2.6 22:00:11 10° WNW 22:03:33 58° SW 22:06:15 15° SE
ERS-1 Rocket 3.1 21:58:32 10° SSE 22:03:34 82° WSW 22:08:36 10° NNW
SL-16 R/B 3.2 21:58:48 10° SW 22:04:18 53° WNW 22:09:51 10° NNE
Atlas Centaur 2 3.5 21:58:14 10° SW 22:04:49 36° SSE 22:12:17 10° ESE
Meteor 1-15 Rocket 4.2 22:00:51 10° N 22:06:28 88° ENE 22:12:09 10° S
USA 234 4.0 22:01:44 10° ESE 22:07:53 45° NNE 22:14:03 10° NW
Envisat 3.1 22:05:31 10° SSE 22:10:25 60° ENE 22:15:25 10° N
Cosmos 1464 Rocket 4.1 22:05:05 10° N 22:11:13 78° W 22:17:23 10° S
ISS -3.1 22:11:39 10° SSW 22:14:48 46° SE 22:17:57 10° ENE
Cosmos 1812 Rocket 3.9 22:10:36 10° N 22:14:52 48° E 22:18:12 16° SSE
deb Chang Zheng 4 4.0 22:11:47 10° N 22:16:10 67° WNW 22:20:29 10° SSW
PSLV R/B 3.3 22:15:39 10° WSW 22:19:12 74° SSE 22:22:45 10° E
Cosmos 1939 Rocket 3.0 22:16:38 10° S 22:20:44 84° WSW 22:24:53 10° NNW
GRACE-1 3.8 22:19:41 10° N 22:22:33 72° E 22:24:31 18° S
GRACE-2 3.8 22:20:07 10° N 22:22:59 73° E 22:24:56 18° S
H-2A R/B 2.8 22:23:00 10° S 22:27:07 51° W 22:31:22 10° NNW
SPOT 5 2.6 22:24:58 16° SSE 22:28:30 77° ENE 22:32:50 10° N
Lacrosse 5 rocket 4.4 22:26:11 10° WNW 22:28:44 16° NNW 22:31:21 10° NNE
COSMOS 2455 2.8 22:24:07 10° SSW 22:30:04 70° ESE 22:36:03 10° NNE
ALOS 4.5 22:26:38 10° SW 22:30:18 23° W 22:33:59 10° NW
Cosmos 2034 Rocket 4.2 22:24:09 10° N 22:30:30 75° W 22:36:47 10° S
Cosmos 1515 4.0 22:28:51 19° SSE 22:31:17 47° E 22:35:00 10° NNE
Cosmos 1603 3.8 22:27:42 10° SSW 22:33:19 78° WNW 22:38:57 10° NNE
CZ-4 SHROUD 3.3 22:31:45 20° S 22:33:47 75° W 22:36:57 10° NNW
BREEZE-M DEB (TANK) 3.1 22:32:43 10° WNW 22:34:48 28° SW 22:35:26 23° SSW
Cosmos 1626 Rocket 4.1 22:31:39 10° SSW 22:36:03 62° W 22:40:26 10° N
YAOGAN 6 2.9 22:39:45 28° SE 22:41:25 53° ENE 22:45:05 10° N
Meteor 2-12 Rocket 4.4 22:38:58 10° N 22:45:05 80° E 22:49:33 19° SSE
Terra 3.5 22:43:54 16° E 22:45:46 20° ENE 22:49:14 10° NNE
Cosmos 1992 Rocket 4.1 22:42:28 10° NNW 22:47:41 64° ENE 22:50:30 27° SE
Cosmos 1346 Rocket 3.4 22:48:52 32° SE 22:49:44 37° E 22:53:22 10° NNE
Cosmos 1953 Rocket 3.9 22:52:36 31° SE 22:54:14 46° E 22:58:29 10° NNE
Cosmos 1943 3.1 22:51:10 10° SSW 22:56:46 68° ESE 23:02:26 10° NNE
MetOp-A 4.3 22:55:40 20° S 22:59:22 72° WSW 23:04:45 10° NNW
H-2A R/B 3.0 22:57:40 24° ESE 22:59:31 31° ENE 23:03:54 10° N
Cosmos 2346 Rocket 4.4 22:56:16 18° S 23:01:02 75° E 23:07:10 10° N
Cosmos 1943 Rocket 3.6 22:57:40 10° N 23:02:15 26° NE 23:04:49 19° E
Lacrosse 4 Rocket 1.5 23:03:03 41° SSE 23:03:49 48° ESE 23:07:46 10° NE
Geosat 4.2 22:59:37 10° NE 23:04:30 48° ESE 23:06:36 30° SSE
Cosmos 1190 Rocket 3.9 23:03:10 19° S 23:07:01 72° ESE 23:12:20 10° NNE
SeaSat 1 3.0 23:04:20 24° S 23:07:07 52° WSW 23:11:57 10° NW
SPOT 1/Viking Rocket 3.5 23:05:20 28° S 23:08:08 83° WSW 23:13:19 10° NNW
Cosmos-2242 4.2 23:07:17 10° NNE 23:11:03 27° ENE 23:11:38 26° E
CZ-4B R/B 4.1 23:11:57 10° N 23:16:57 59° WNW 23:22:02 10° SSW
Cosmos 676 Rocket 4.1 23:21:47 38° SSE 23:23:39 60° ESE 23:28:54 10° NNE
DELTA 2 DEB (DPAF) 4.1 23:22:59 48° SSE 23:24:14 85° ENE 23:28:45 10° NNW
DMSP B5D2-2 4.4 23:20:12 10° NNE 23:25:16 45° E 23:26:13 41° SE
Cosmos 1766 3.3 23:22:10 10° N 23:26:09 61° E 23:26:30 58° ESE
Cosmos 1758 Rocket 3.4 23:27:02 46° S 23:28:20 89° W 23:32:44 10° N
Cosmos 1140 Rocket 4.3 23:28:55 32° E 23:28:55 32° E 23:33:25 10° NE
CARTOSAT-1 3.6 23:31:25 53° ESE 23:32:01 59° ENE 23:36:17 10° N
ARGOS 3.5 23:33:16 32° SSW 23:35:40 60° W 23:41:03 10° NNW
ATLAS 3B R/B 3.0 23:31:42 10° SW 23:39:26 81° WNW 23:47:01 10° NNE
Cosmos 2369 Rocket 2.4 23:36:01 10° NNW 23:41:36 61° WSW 23:43:27 40° S
CZ-4C R/B 4.0 23:46:15 45° SW 23:46:59 51° W 23:51:00 10° NNW
USA 234 3.4 23:48:30 40° S 23:50:43 58° SW 23:57:13 10° NW
ISS -0.9 23:48:38 10° W 23:51:22 24° NNW 23:54:07 10° NNE
SL-27 R/B 3.9 23:54:51 30° NNE 23:54:51 30° NNE 23:56:43 10° NNE
